DateTimeUTC,F1_A11,F1_S11,BsB_S11,BsG_S11,BsR_S11,BbsB_S11,BbsG_S11,BbsR_S11,BaB_A11,BaG_A11,BaR_A11,Tu_S11,T_S11,Uu_S11,U_S11,P_S11,T1_A11
2021-10-08T15:00:00Z,00000200,20000000,,,,,,,-000.04,0000.39,0000.43,16.6,23.4,02.9,01.9,0669.6,30.8
2021-10-08T15:01:00Z,00000200,20000000,,,,,,,0000.47,0000.10,-000.25,16.6,23.4,02.9,01.9,0669.7,30.9
2021-10-08T15:02:00Z,00000200,20000000,,,,,,,0000.38,0000.05,0000.24,16.7,23.4,02.9,01.9,0669.7,30.9
2021-10-08T15:03:00Z,00000200,60000000,,,,,,,0000.04,0000.31,0000.16,16.7,23.5,02.9,01.9,0669.7,30.9
2021-10-08T15:04:00Z,00000200,40000000,0000.84,0000.47,0000.11,0000.90,-000.08,0000.02,0000.38,0000.10,0000.15,17.2,23.4,03.1,02.1,0670.7,30.9
2021-10-08T15:05:00Z,00000200,00000000,0000.62,0000.76,0000.34,0000.58,0000.18,0000.33,0000.08,-000.05,-000.19,17.2,23.4,03.0,02.1,0670.8,30.9
2021-10-08T15:06:00Z,00000200,00000000,0001.29,0000.34,0000.42,0000.09,0000.43,0000.37,-000.38,-000.39,-000.23,17.2,23.4,03.0,02.1,0670.8,30.9
2021-10-08T15:07:00Z,00000200,00000000,0001.00,0000.66,0000.31,0000.18,0000.09,0000.46,-000.47,0000.13,-000.05,17.1,23.4,02.9,02.0,0670.9,30.9
2021-10-08T15:08:00Z,00000200,00000000,0001.32,0000.29,0000.53,-000.27,0000.18,0000.64,0000.12,-000.38,-000.38,17.1,23.3,02.8,01.9,0670.9,30.9
2021-10-08T15:09:00Z,00000200,00000000,0000.39,0000.70,0000.32,0000.58,0000.33,0000.34,-000.21,-000.45,0000.27,17.0,23.3,02.7,01.8,0671.0,30.9
2021-10-08T15:10:00Z,00000200,00000000,0000.52,0000.64,0000.57,0000.10,-000.05,0000.21,-000.71,-000.01,-000.44,17.0,23.3,02.5,01.7,0671.0,30.9
2021-10-08T15:11:00Z,00000200,00000000,0000.30,0000.28,0000.30,0000.16,-000.07,0000.08,-000.01,-000.45,-000.31,16.9,23.3,02.3,01.6,0671.0,30.9
2021-10-08T15:12:00Z,00000200,00000000,0000.99,0000.38,-000.13,-000.23,0000.20,0000.18,-000.35,-000.59,-000.18,16.9,23.3,02.1,01.4,0671.1,30.8
2021-10-08T15:13:00Z,00000200,01000000,0001.53,0000.39,0000.13,-000.17,0000.12,-000.01,-000.31,0000.02,-000.08,16.9,23.2,01.9,01.3,0671.0,30.8
2021-10-08T15:14:00Z,00000200,01000000,0001.06,0000.38,0000.26,-000.08,-000.35,0000.27,-000.55,-000.16,0000.13,16.9,23.2,01.6,01.1,0670.8,30.8
2021-10-08T15:15:00Z,00000200,01000000,0001.04,0000.48,0000.17,0000.51,0000.08,0000.37,0000.62,0000.82,0000.44,17.0,23.3,01.6,01.1,0670.9,30.8
2021-10-08T15:16:00Z,00000200,01000000,0001.57,0000.41,0000.68,0001.26,0000.30,0000.33,0000.44,0000.18,0000.08,17.1,23.3,01.5,01.1,0670.9,30.9
2021-10-08T15:17:00Z,00000200,01000000,0000.53,0000.35,0000.27,0000.46,0000.29,0000.08,0000.38,0000.17,0000.26,17.1,23.3,01.6,01.1,0671.0,30.9
2021-10-08T15:18:00Z,00000200,01000000,0001.35,0000.68,0000.20,-000.22,0000.09,0000.16,-000.06,0000.48,0000.32,17.2,23.4,01.7,01.1,0671.0,30.9
2021-10-08T15:19:00Z,00000200,01000000,0000.19,0000.67,0000.10,0000.27,0000.34,0000.16,0000.16,-000.59,-000.08,17.2,23.4,01.7,01.1,0671.0,30.9
2021-10-08T15:20:00Z,00000200,01000000,0000.77,0000.39,0000.23,0000.24,0000.21,0000.38,-000.07,-000.23,-000.57,17.2,23.4,01.6,01.1,0671.1,30.9
2021-10-08T15:21:00Z,00000200,01000000,-000.10,0000.32,0000.38,-000.00,-000.08,-000.06,-000.21,-000.08,-000.21,17.2,23.4,01.5,01.1,0671.2,30.8
2021-10-08T15:22:00Z,00000200,01000000,0000.95,0000.28,0000.13,0000.78,-000.26,0000.45,0000.18,0000.29,0000.24,17.1,23.4,01.5,01.0,0671.1,30.9
2021-10-08T15:23:00Z,00000200,01000000,0001.04,0000.63,0000.33,0000.18,0000.09,0000.28,0000.75,0000.83,0000.61,17.0,23.3,01.6,01.1,0671.1,30.9
2021-10-08T15:24:00Z,00000200,01000000,0000.78,0000.46,0000.34,0000.60,0000.31,0000.07,0000.06,-000.05,0000.24,17.0,23.3,01.8,01.2,0671.2,30.9
2021-10-08T15:25:00Z,00000200,01000000,0001.09,0001.09,0000.40,0000.60,0000.08,0000.04,0000.29,0000.21,0000.01,17.0,23.3,01.8,01.2,0671.4,30.8
2021-10-08T15:26:00Z,00000200,01000000,0000.52,0000.51,0000.06,0000.16,0000.25,-000.05,-000.12,-000.29,-000.19,16.9,23.3,01.8,01.2,0671.5,30.8
2021-10-08T15:27:00Z,00000200,01000000,0001.00,0000.65,0000.25,-000.77,0000.23,0000.07,-001.74,-001.27,-001.24,16.8,23.2,01.4,01.0,0671.5,30.8
2021-10-08T15:28:00Z,00000200,01000000,0001.00,0000.72,0000.65,0000.50,0000.19,0000.25,0001.03,0001.09,0000.88,16.8,23.2,01.1,00.7,0671.6,30.8
2021-10-08T15:29:00Z,00000200,01000000,0001.17,0000.67,0000.10,0001.02,0000.05,0000.21,0000.94,0000.79,0000.92,16.8,23.2,01.4,00.9,0671.3,30.8
2021-10-08T15:30:00Z,00000200,01000000,0000.02,0000.65,0000.28,0000.57,0000.25,0000.30,0000.79,0000.52,0000.62,16.9,23.2,01.5,01.0,0671.3,30.8
2021-10-08T15:31:00Z,00000200,01000000,0000.87,0000.58,0000.48,-000.10,0000.27,0000.33,0000.24,0000.65,0000.31,17.0,23.2,01.7,01.1,0671.3,30.9
2021-10-08T15:32:00Z,00000200,01000000,0000.29,0000.70,0000.45,0000.41,0000.33,0000.14,0000.85,0000.41,0000.17,17.1,23.3,01.6,01.1,0671.3,30.9
2021-10-08T15:33:00Z,00000200,01000000,0001.27,0000.66,0000.21,0000.48,0000.25,0000.23,0000.28,0000.46,0000.81,17.2,23.4,01.8,01.2,0671.4,30.9
2021-10-08T15:34:00Z,00000200,01000000,0000.91,0000.10,0000.24,0000.36,0000.23,-000.04,0000.15,-000.02,0000.16,17.3,23.4,01.8,01.2,0671.5,30.9
2021-10-08T15:35:00Z,00000200,01000000,0000.81,0000.41,-000.16,0000.81,0000.11,0000.11,0000.10,0000.55,-000.12,17.3,23.4,01.7,01.2,0671.6,30.9
2021-10-08T15:36:00Z,00000200,01000000,0000.69,0000.69,0000.46,0000.64,0000.00,0000.42,0000.03,-000.47,-000.50,17.3,23.5,01.8,01.2,0671.6,30.9
2021-10-08T15:37:00Z,00000200,01000000,0001.01,0000.62,0000.28,-000.01,0000.21,-000.12,0000.03,-000.08,0000.22,17.2,23.4,01.7,01.2,0671.7,30.9
2021-10-08T15:38:00Z,00000200,01000000,0001.03,0000.43,0000.31,0000.10,-000.06,0000.18,-000.06,-000.21,0000.15,17.2,23.4,01.7,01.1,0671.7,30.9
2021-10-08T15:39:00Z,00000200,01000000,0000.99,0000.68,0000.42,0000.40,0000.19,0000.18,0000.15,0000.39,0000.11,17.1,23.4,01.7,01.1,0671.7,30.9
2021-10-08T15:40:00Z,00000200,01000000,0001.60,0000.62,0000.36,-000.14,-000.05,0000.27,-000.01,0000.11,-000.39,17.1,23.4,01.6,01.1,0671.8,30.9
2021-10-08T15:41:00Z,00000200,01000000,0001.88,0000.61,0000.48,0001.13,0000.10,0000.49,0000.17,0000.00,0000.13,17.0,23.4,01.7,01.1,0671.9,30.9
2021-10-08T15:42:00Z,00000200,01000000,0000.48,0000.42,0000.33,0000.08,0000.19,0000.55,0000.53,0000.39,0000.73,17.0,23.3,01.7,01.2,0671.9,30.8
2021-10-08T15:43:00Z,00000200,01000000,0001.12,0000.45,0000.30,0000.74,0000.20,0000.10,0000.65,0000.83,0000.10,16.9,23.3,01.9,01.3,0672.1,30.8
2021-10-08T15:44:00Z,00000200,00000000,0000.60,0000.20,0000.48,0000.24,0000.04,0000.49,0000.94,0000.68,0000.88,17.0,23.3,02.0,01.3,0672.3,30.8
2021-10-08T15:45:00Z,00000200,00000000,0000.34,0000.80,0000.30,0001.09,0000.29,0000.37,0000.18,0000.70,0000.42,17.1,23.3,02.0,01.4,0672.3,30.9
2021-10-08T15:46:00Z,00000200,00000000,0000.20,0000.43,0000.35,0000.36,-000.03,0000.12,0000.33,0000.16,-000.10,17.2,23.4,02.1,01.4,0672.4,30.9
2021-10-08T15:47:00Z,00000200,01000000,0000.35,0000.35,0000.30,0000.18,0000.29,-000.02,0000.11,-000.05,0000.08,17.2,23.4,02.0,01.4,0672.4,30.9
2021-10-08T15:48:00Z,00000200,00000000,0000.62,0000.31,0000.08,0000.20,0000.03,0000.31,-000.40,-000.30,-000.16,17.3,23.5,01.9,01.3,0672.4,30.9
2021-10-08T15:49:00Z,00000200,01000000,0000.72,0000.91,0000.47,0000.33,0000.17,0000.03,-000.12,-000.08,-000.29,17.3,23.5,01.6,01.1,0672.4,30.9
2021-10-08T15:50:00Z,00000200,01000000,0000.74,0000.85,0000.37,0000.02,0000.24,0000.22,-000.32,0000.05,-000.25,17.3,23.5,01.5,01.0,0672.4,30.9
2021-10-08T15:51:00Z,00000200,01000000,0001.35,0000.53,0000.41,0000.06,0000.01,0000.28,-000.36,-000.76,-000.42,17.3,23.5,01.3,00.9,0672.4,30.9
2021-10-08T15:52:00Z,00000200,01000000,0001.13,0000.46,0000.36,0000.22,-000.05,-000.12,-000.11,0000.03,0000.24,17.2,23.5,01.3,00.9,0672.4,30.9
2021-10-08T15:53:00Z,00000200,01000000,0000.50,0000.56,0000.19,0000.42,0000.21,0000.16,0000.53,-000.06,0000.31,17.2,23.4,01.4,00.9,0672.4,30.9
2021-10-08T15:54:00Z,00000200,01000000,0001.07,0000.47,0000.34,0000.66,0000.14,0000.43,-000.17,0000.08,-000.25,17.1,23.4,01.5,01.0,0672.4,30.9
2021-10-08T15:55:00Z,00000200,01000000,0000.62,0000.68,0000.28,0000.26,0000.01,-000.02,0000.00,0000.52,0000.14,17.1,23.4,01.4,00.9,0672.4,30.9
2021-10-08T15:56:00Z,00000200,01000000,0000.90,0000.66,0000.64,0000.66,0000.06,0000.28,-000.02,-001.12,-000.12,17.0,23.4,01.4,00.9,0672.4,30.9
2021-10-08T15:57:00Z,00000200,40000000,,,,,,,0000.98,0001.15,0000.45,17.0,23.4,01.6,01.1,0672.4,30.8
2021-10-08T15:58:00Z,00000200,61000000,,,,,,,-000.54,-000.15,0000.06,16.7,23.5,01.3,00.8,0671.4,30.8
2021-10-08T15:59:00Z,00000200,21000000,,,,,,,0000.22,0000.27,0000.05,16.7,23.6,01.2,00.8,0671.4,30.8
